[[{"header":{"parameterUnit":"m.s-1","parameterCategory":2,"la1":30.2991,"la2":30.254,"lo1":-89.0895,"lo2":-89.0444,"dy":0.0017,"dx":0.0017,"nx":28,"ny":28,"refTime":"2024-04-09T03:00:00:Z","depth":"0","parameterNumber":2,"parameterNumberName":"U-component_of_CURRENTS"},"data":[0,0,0,0,0,0,0,0,0,0,0,0,0,0,0,0,0,0,0,0,0,0,0,0,0,0,0,0,0,0,0,0,0,0,0,0,0,0,0,0,0,0,0,0,0,0,0,0,0,0,0,0,0,0,0,0,0,0,0.2952,0.2951,0,0.2776,0.2774,0.2772,0.2698,0.2698,0.2699,0.27,0.2616,0.2613,0.2611,0,0,0,0,0,0,0,0,0,0,0,0,0,0.3123,0.312,0.2953,0.2951,0.2949,0.2777,0.2774,0.2771,0.2697,0.2698,0.2699,0.27,0.2617,0.2614,0.261,0,0,0,0,0,0,0,0,0,0,0,0,0,0.3005,0.312,0.2953,0.2894,0.2888,0.2777,0.2774,0.277,0.2697,0.2698,0.2699,0.27,0.2618,0.2614,0.261,0.2562,0,0,0.2597,0.2595,0,0,0,0,0,0,0,0,0.3011,0.2998,0.2905,0.2898,0.289,0.2763,0.2803,0.2707,0.2697,0.2765,0.27,0.2701,0.2676,0.2667,0.2624,0.2558,0.2555,0.2596,0.2594,0.2592,0.2591,0,0,0,0,0,0,0,0.302,0.3004,0.2879,0.2903,0.2894,0.2842,0.2827,0.2783,0.2716,0.2759,0.2755,0.2741,0.2672,0.2629,0.2622,0.2553,0.2596,0.2593,0.259,0.2588,0.2505,0.2505,0,0,0,0,0,0,0.3053,0.3013,0.2884,0.2874,0.2959,0.2839,0.2821,0.28,0.2714,0.2702,0.274,0.2738,0.2635,0.2627,0.2619,0.2565,0.2592,0.2588,0.2585,0.2504,0.2505,0.2505,0,0,0,0,0,0,0.3057,0.3043,0.2892,0.2943,0.2921,0.2836,0.2811,0.2796,0.2745,0.2699,0.2688,0.2705,0.2636,0.2625,0.2575,0.2562,0.2586,0.2582,0.2504,0.2504,0.2505,0.2454,0,0,0,0,0,0,0.3063,0.3045,0.3028,0.2945,0.2919,0.2799,0.281,0.2792,0.2737,0.2732,0.2665,0.2659,0.2636,0.2582,0.2571,0.2557,0.2579,0.2503,0.2504,0.2505,0.2455,0.2453,0.2451,0,0,0,0,0,0.3069,0.3009,0.3028,0.3012,0.2902,0.2797,0.2776,0.2718,0.2735,0.2682,0.2665,0.266,0.2581,0.2577,0.2565,0.2549,0.2503,0.2504,0.2505,0.2456,0.2453,0.2451,0,0,0,0,0,0,0.3028,0.2994,0.3013,0.2937,0.2877,0.2785,0.273,0.2713,0.2652,0.266,0.2638,0.2627,0.259,0.258,0.2577,0.2535,0.2552,0.255,0.2519,0.2516,0.2514,0.2533,0.2575,0,0,0,0,0,0.3031,0.3004,0.2952,0.2891,0.2868,0.2812,0.2764,0.273,0.2674,0.2646,0.261,0.2594,0.2582,0.2557,0.2534,0.2485,0.2478,0.2481,0.2478,0.2476,0.2488,0.2516,0.2517,0.2508,0.2508,0.2508,0,0,0.2993,0.2977,0.2955,0.2887,0.2844,0.2783,0.2781,0.2698,0.2652,0.2651,0.2574,0.2576,0.2572,0.2528,0.2512,0.2513,0.2453,0.2477,0.2475,0.2488,0.2517,0.2518,0.2519,0.2508,0.2508,0.2508,0,0,0.2914,0.2901,0.2866,0.2823,0.2772,0.2736,0.272,0.2638,0.2606,0.2543,0.2557,0.2554,0.2494,0.2495,0.2495,0.2469,0.2449,0.2467,0.2449,0.2476,0.2477,0.2478,0.2369,0.2361,0.2456,0.2456,0.2456,0,0.2871,0.2833,0.2825,0.2781,0.274,0.2724,0.266,0.2615,0.2527,0.2517,0.2518,0.2501,0.2487,0.2482,0.2475,0.2462,0.2434,0.2451,0.2471,0.2473,0.2475,0.2364,0.2356,0.2453,0.2453,0.2454,0.2454,0,0.2787,0.2749,0.271,0.2683,0.263,0.2559,0.2526,0.248,0.2472,0.2454,0.2443,0.2439,0.244,0.2439,0.2441,0.2453,0.2406,0.2469,0.2473,0.2473,0.2355,0.2347,0.245,0.2451,0.2451,0.2452,0,0,0.2698,0.2665,0.2652,0.2633,0.2577,0.2515,0.2464,0.2414,0.2408,0.2371,0.2366,0.2366,0.24,0.2406,0.2421,0.2442,0.2392,0.2454,0.2456,0.2332,0.2346,0.2136,0.2107,0.2465,0.2466,0.2467,0.222,0,0.2634,0.2561,0.2555,0.2462,0.2415,0.2401,0.236,0.2326,0.2322,0.2311,0.2352,0.235,0.2376,0.2384,0.2414,0.2405,0.2387,0.2446,0.2379,0.2374,0.2181,0.2099,0.2034,0.1798,0.2213,0.2212,0.2211,0,0.2559,0.2526,0.2444,0.239,0.2369,0.2321,0.2284,0.2246,0.2258,0.2261,0.2294,0.2322,0.2314,0.2379,0.2339,0.2372,0.2358,0.2357,0.2349,0.2181,0.2154,0.1889,0.1769,0.1706,0.2199,0.22,0.2201,0,0.2515,0.2437,0.2382,0.2354,0.2297,0.2269,0.2244,0.224,0.2217,0.2241,0.2225,0.2261,0.2223,0.2272,0.2197,0.2288,0.2134,0.2263,0.2048,0.2027,0.1973,0.1946,0.1786,0.2276,0.2277,0.2278,0.2278,0,0.2443,0.2384,0.2366,0.2324,0.2272,0.2245,0.2207,0.22,0.2198,0.2145,0.2205,0.2142,0.2209,0.2115,0.2143,0.1971,0.2066,0.2002,0.1964,0.1937,0.1911,0.1859,0.1855,0.2268,0.227,0.2272,0.2274,0,0.2383,0.2367,0.2303,0.2262,0.2249,0.2215,0.217,0.2146,0.2139,0.2069,0.2058,0.2005,0.1857,0.1841,0.1817,0.1804,0.1655,0.1676,0.1544,0.1496,0.1295,0.129,0.1025,0.1035,0.1434,0.1427,0.1422,0,0.2338,0.231,0.2275,0.2245,0.2222,0.2179,0.2148,0.2131,0.2081,0.1944,0.1884,0.1726,0.1584,0.1379,0.135,0.1261,0.1335,0.1136,0.1348,0.121,0.1182,0.1181,0.1217,0.1213,0.1206,0.1201,0.1196,0,0.2268,0.2278,0.2244,0.219,0.2149,0.2082,0.2018,0.1963,0.1884,0.1786,0.1564,0.1444,0.1231,0.1082,0.0933,0.0914,0.1047,0.1017,0.0979,0.1046,0.0939,0.0955,0.1353,0.1147,0.1152,0.1156,0.1159,0.1161,0.2235,0.2205,0.2173,0.2089,0.2047,0.1918,0.1798,0.1714,0.1562,0.1329,0.1296,0.1084,0.0959,0.0764,0.0671,0.0508,0.066,0.0572,0.0576,0.0586,0.0604,0.0786,0.049,0.0491,0.0492,0.0493,0.0494,0,0.2139,0.2097,0.205,0.1911,0.1778,0.18,0.1641,0.1482,0.1219,0.1123,0.0923,0.0795,0.0569,0.0473,0.0272,0.0144,0.0238,0.0094,0.0181,0.0257,0.0502,0.0507,0.0075,0.0075,0.0075,0.0075,0.0075,0.0075,0.2085,0.198,0.1919,0.1641,0.1544,0.1301,0.1169,0.1,0.0894,0.07,0.0644,0.0653,0.0544,0.0146,-0.014,-0.017,-0.0119,-0.0252,-0.0166,0.0095,0.0146,0.0195,0.02,-0.0289,-0.0289,-0.0347,-0.0348,-0.0349]},{"header":{"parameterUnit":"m.s-1","parameterCategory":2,"la1":30.2991,"la2":30.254,"lo1":-89.0895,"lo2":-89.0444,"dy":0.0017,"dx":0.0017,"nx":28,"ny":28,"refTime":"2024-04-09T03:00:00:Z","depth":"0","parameterNumber":3,"parameterNumberName":"V-component_of_CURRENTS"},"data":[0,0,0,0,0,0,0,0,0,0,0,0,0,0,0,0,0,0,0,0,0,0,0,0,0,0,0,0,0,0,0,0,0,0,0,0,0,0,0,0,0,0,0,0,0,0,0,0,0,0,0,0,0,0,0,0,0,0,0.147,0.1469,0,0.1326,0.1323,0.1321,0.1204,0.1204,0.1204,0.1204,0.102,0.1016,0.1011,0,0,0,0,0,0,0,0,0,0,0,0,0,0.1376,0.1379,0.147,0.1469,0.1468,0.1326,0.1323,0.132,0.1204,0.1204,0.1204,0.1204,0.1022,0.1016,0.101,0,0,0,0,0,0,0,0,0,0,0,0,0,0.1332,0.138,0.147,0.1403,0.1396,0.1327,0.1323,0.1319,0.1204,0.1204,0.1204,0.1203,0.1024,0.1017,0.101,0.0966,0,0,0.0988,0.0984,0,0,0,0,0,0,0,0,0.1335,0.1334,0.1413,0.1407,0.14,0.1294,0.1223,0.1204,0.1204,0.1263,0.1204,0.1203,0.1117,0.1102,0.1057,0.0958,0.095,0.0987,0.0982,0.0979,0.0977,0,0,0,0,0,0,0,0.1338,0.1338,0.14,0.1413,0.1405,0.1289,0.1284,0.1217,0.1181,0.1258,0.1252,0.1257,0.1111,0.1064,0.1052,0.0947,0.0987,0.0981,0.0976,0.0973,0.0834,0.0834,0,0,0,0,0,0,0.1396,0.1343,0.1405,0.1397,0.1381,0.1293,0.1286,0.1318,0.1183,0.1166,0.1257,0.1252,0.1077,0.1061,0.1045,0.1005,0.0979,0.0973,0.0968,0.0833,0.0834,0.0834,0,0,0,0,0,0,0.1395,0.1404,0.1411,0.1374,0.1368,0.1298,0.1332,0.1315,0.1272,0.1185,0.1165,0.1234,0.1076,0.1056,0.0986,0.0996,0.0969,0.0963,0.0832,0.0833,0.0834,0.0912,0,0,0,0,0,0,0.1394,0.1405,0.1424,0.138,0.1373,0.136,0.1333,0.1313,0.1281,0.1273,0.1159,0.1141,0.1074,0.0997,0.0979,0.0986,0.0957,0.0831,0.0833,0.0834,0.0908,0.0915,0.0921,0,0,0,0,0,0.1391,0.1412,0.1426,0.1433,0.1411,0.1361,0.1343,0.1283,0.1281,0.1246,0.1185,0.1145,0.0993,0.0991,0.0969,0.0975,0.0831,0.0832,0.0834,0.0906,0.0914,0.0921,0,0,0,0,0,0,0.1379,0.1403,0.1416,0.1447,0.1412,0.1346,0.1316,0.1293,0.1215,0.1213,0.1134,0.1111,0.106,0.1008,0.1009,0.0942,0.0912,0.091,0.0975,0.0982,0.0988,0.1034,0.0951,0,0,0,0,0,0.1397,0.1418,0.1416,0.1434,0.1429,0.138,0.1352,0.1319,0.1262,0.1227,0.1156,0.1095,0.1047,0.1009,0.0946,0.0897,0.0929,0.0893,0.09,0.0906,0.093,0.0994,0.1009,0.0839,0.0839,0.0839,0,0,0.1393,0.1415,0.1423,0.1431,0.1403,0.1378,0.1357,0.1323,0.1295,0.1222,0.115,0.1107,0.104,0.0987,0.0962,0.0945,0.0974,0.0907,0.0913,0.0934,0.0997,0.1014,0.1029,0.084,0.084,0.084,0,0,0.1384,0.1427,0.1431,0.1414,0.1399,0.137,0.1373,0.1318,0.1285,0.1227,0.1186,0.1165,0.105,0.1026,0.0999,0.1009,0.1009,0.0979,0.1039,0.11,0.1116,0.113,0.1214,0.1235,0.0979,0.098,0.098,0,0.1369,0.1406,0.1413,0.1409,0.1399,0.1379,0.1363,0.1325,0.1247,0.1246,0.1213,0.1144,0.1082,0.1076,0.1072,0.1027,0.1066,0.1013,0.1113,0.1127,0.114,0.1223,0.1245,0.0983,0.0983,0.0983,0.0982,0,0.1358,0.1384,0.1382,0.1388,0.1367,0.1348,0.133,0.1303,0.1285,0.1265,0.1257,0.1198,0.1173,0.1149,0.1101,0.116,0.1162,0.112,0.1102,0.1163,0.1245,0.1267,0.0989,0.0988,0.0986,0.0985,0,0,0.1321,0.1366,0.1364,0.1378,0.1362,0.1346,0.1327,0.1316,0.1343,0.1291,0.1332,0.1267,0.1282,0.1258,0.1223,0.1265,0.1385,0.123,0.1231,0.1331,0.1549,0.1689,0.1725,0.1358,0.1362,0.1364,0.1579,0,0.13,0.1321,0.1336,0.133,0.1336,0.1333,0.1326,0.1321,0.1325,0.1353,0.1362,0.1374,0.1311,0.1325,0.136,0.1367,0.1442,0.1333,0.1461,0.1466,0.1596,0.1755,0.1823,0.2032,0.16,0.1604,0.1607,0,0.1276,0.13,0.1314,0.1349,0.1352,0.1343,0.1374,0.1367,0.1417,0.1433,0.148,0.1486,0.1541,0.1489,0.1587,0.1518,0.1556,0.1572,0.158,0.1703,0.1648,0.1895,0.2087,0.2224,0.164,0.1637,0.1635,0,0.1258,0.1281,0.1306,0.1309,0.1338,0.1349,0.136,0.1398,0.1438,0.1513,0.1572,0.1624,0.1669,0.1722,0.1744,0.1677,0.1879,0.1788,0.1968,0.1977,0.2061,0.2074,0.2419,0.1914,0.1914,0.1913,0.1912,0,0.124,0.1252,0.131,0.1319,0.1356,0.1367,0.1427,0.1447,0.1534,0.1612,0.1631,0.171,0.1728,0.1822,0.1835,0.2004,0.1964,0.205,0.2069,0.2092,0.2104,0.2242,0.2197,0.1921,0.1919,0.1918,0.1916,0,0.1218,0.1257,0.129,0.1337,0.1357,0.1386,0.1472,0.1539,0.1594,0.1709,0.1746,0.1814,0.1927,0.1984,0.2085,0.2148,0.2383,0.2333,0.2381,0.2405,0.2708,0.266,0.2955,0.3139,0.26,0.2606,0.261,0,0.1214,0.1235,0.1307,0.1355,0.1382,0.1441,0.1505,0.1569,0.1651,0.1767,0.184,0.1967,0.2044,0.2288,0.2437,0.2603,0.2597,0.2789,0.2686,0.2828,0.2785,0.272,0.2847,0.2822,0.2828,0.2832,0.2836,0,0.1204,0.1239,0.1284,0.1391,0.1465,0.1545,0.1634,0.1691,0.178,0.1857,0.1963,0.2026,0.2279,0.2465,0.2723,0.2839,0.293,0.2896,0.3022,0.3019,0.2988,0.3137,0.2578,0.2878,0.2874,0.2871,0.2868,0.2867,0.121,0.1256,0.1348,0.1445,0.1534,0.1634,0.1668,0.1768,0.1861,0.1959,0.204,0.2143,0.2402,0.2762,0.2996,0.3428,0.3272,0.3459,0.34,0.3335,0.3504,0.3082,0.3405,0.3404,0.3403,0.3402,0.3401,0,0.1243,0.1317,0.1406,0.153,0.1619,0.1666,0.1754,0.1773,0.1833,0.2006,0.2093,0.2387,0.2672,0.3012,0.3507,0.3814,0.3931,0.3942,0.3843,0.3964,0.3597,0.3603,0.4009,0.4009,0.4009,0.4009,0.4009,0.4009,0.1275,0.1373,0.1432,0.1589,0.1665,0.1736,0.1756,0.1764,0.1854,0.2074,0.2294,0.2515,0.2765,0.3171,0.3776,0.404,0.4281,0.4264,0.4402,0.4069,0.4017,0.3968,0.3976,0.4453,0.4453,0.4832,0.4835,0.4837]}],[{"header":{"parameterUnit":"m.s-1","parameterCategory":2,"la1":30.2991,"la2":30.254,"lo1":-89.0895,"lo2":-89.0444,"dy":0.0017,"dx":0.0017,"nx":28,"ny":28,"refTime":"2024-04-09T03:00:00:Z","depth":"2","parameterNumber":2,"parameterNumberName":"U-component_of_CURRENTS"},"data":[0,0,0,0,0,0,0,0,0,0,0,0,0,0,0,0,0,0,0,0,0,0,0,0,0,0,0,0,0,0,0,0,0,0,0,0,0,0,0,0,0,0,0,0,0,0,0,0,0,0,0,0,0,0,0,0,0,0,0.2952,0.295,0,0.2775,0.2772,0.277,0.2696,0.2697,0.2698,0.2698,0.2615,0.2613,0.261,0,0,0,0,0,0,0,0,0,0,0,0,0,0.3123,0.3121,0.2952,0.295,0.2948,0.2775,0.2772,0.277,0.2696,0.2697,0.2698,0.2699,0.2616,0.2613,0.261,0,0,0,0,0,0,0,0,0,0,0,0,0,0.3005,0.312,0.2952,0.2893,0.2887,0.2776,0.2772,0.2769,0.2696,0.2697,0.2698,0.2699,0.2618,0.2613,0.2609,0.2561,0,0,0.2596,0.2594,0,0,0,0,0,0,0,0,0.3011,0.2998,0.2904,0.2897,0.289,0.2762,0.2802,0.2705,0.2696,0.2764,0.2698,0.27,0.2675,0.2666,0.2623,0.2557,0.2554,0.2596,0.2593,0.2591,0.259,0,0,0,0,0,0,0,0.302,0.3004,0.2878,0.2902,0.2893,0.2841,0.2826,0.2782,0.2715,0.2758,0.2754,0.274,0.2671,0.2628,0.2621,0.2553,0.2596,0.2592,0.2589,0.2588,0.2504,0.2505,0,0,0,0,0,0,0.3053,0.3013,0.2883,0.2873,0.2959,0.2838,0.282,0.2799,0.2713,0.2701,0.2739,0.2737,0.2634,0.2626,0.2618,0.2565,0.2591,0.2587,0.2585,0.2504,0.2504,0.2505,0,0,0,0,0,0,0.3057,0.3043,0.2891,0.2942,0.292,0.2835,0.281,0.2795,0.2743,0.2698,0.2687,0.2704,0.2635,0.2624,0.2575,0.2562,0.2585,0.2581,0.2503,0.2504,0.2505,0.2454,0,0,0,0,0,0,0.3063,0.3045,0.3028,0.2944,0.2918,0.2798,0.2809,0.2791,0.2736,0.2731,0.2664,0.2658,0.2635,0.2581,0.257,0.2556,0.2578,0.2503,0.2504,0.2504,0.2455,0.2453,0.245,0,0,0,0,0,0.3069,0.3008,0.3028,0.3012,0.2901,0.2796,0.2775,0.2717,0.2733,0.2681,0.2663,0.2659,0.258,0.2576,0.2564,0.2548,0.2503,0.2503,0.2504,0.2456,0.2453,0.245,0,0,0,0,0,0,0.3028,0.2994,0.3013,0.2936,0.2877,0.2784,0.2728,0.2712,0.2651,0.2659,0.2637,0.2626,0.2589,0.2579,0.2576,0.2535,0.2551,0.2549,0.2519,0.2516,0.2514,0.2532,0.2574,0,0,0,0,0,0.3031,0.3004,0.2952,0.289,0.2867,0.2811,0.2763,0.2729,0.2673,0.2645,0.2609,0.2593,0.2581,0.2556,0.2534,0.2485,0.2477,0.2481,0.2478,0.2476,0.2488,0.2517,0.2518,0.2507,0.2507,0.2507,0,0,0.2993,0.2977,0.2954,0.2886,0.2843,0.2782,0.278,0.2697,0.2651,0.265,0.2573,0.2575,0.2571,0.2527,0.2511,0.2512,0.2453,0.2477,0.2474,0.2488,0.2517,0.2518,0.2519,0.2508,0.2508,0.2508,0,0,0.2913,0.2901,0.2865,0.2823,0.2771,0.2735,0.2719,0.2636,0.2605,0.2542,0.2556,0.2553,0.2493,0.2495,0.2495,0.2469,0.2449,0.2466,0.245,0.2476,0.2477,0.2479,0.237,0.2362,0.2456,0.2456,0.2455,0,0.2871,0.2832,0.2824,0.278,0.2739,0.2723,0.2659,0.2615,0.2526,0.2516,0.2517,0.25,0.2487,0.2482,0.2475,0.2462,0.2434,0.2451,0.2472,0.2474,0.2476,0.2365,0.2357,0.2453,0.2453,0.2454,0.2454,0,0.2786,0.2748,0.2709,0.2682,0.2629,0.2558,0.2525,0.2479,0.2471,0.2453,0.2443,0.2439,0.244,0.2439,0.2441,0.2454,0.2407,0.247,0.2474,0.2474,0.2356,0.2348,0.245,0.2451,0.2451,0.2452,0,0,0.2696,0.2664,0.2651,0.2632,0.2576,0.2514,0.2464,0.2414,0.2408,0.2371,0.2367,0.2366,0.24,0.2406,0.2422,0.2443,0.2393,0.2455,0.2457,0.2333,0.2349,0.2139,0.2109,0.2467,0.2468,0.2469,0.2223,0,0.2633,0.256,0.2554,0.2461,0.2415,0.24,0.236,0.2326,0.2322,0.2311,0.2352,0.2351,0.2377,0.2385,0.2415,0.2406,0.2389,0.2447,0.2381,0.2376,0.2183,0.2102,0.2142,0.1914,0.2215,0.2214,0.2213,0,0.2557,0.2524,0.2443,0.2389,0.2369,0.2321,0.2285,0.2246,0.2259,0.2262,0.2296,0.2324,0.2316,0.2381,0.2342,0.2374,0.2361,0.236,0.2352,0.2183,0.2156,0.1987,0.189,0.2201,0.2202,0.2203,0.2204,0,0.2513,0.2436,0.2381,0.2353,0.2297,0.2268,0.2244,0.2241,0.2218,0.2242,0.2227,0.2263,0.2226,0.2275,0.22,0.229,0.2138,0.2267,0.2052,0.2031,0.2065,0.2046,0.228,0.228,0.2281,0.2282,0.2282,0,0.2441,0.2382,0.2364,0.2323,0.2272,0.2244,0.2208,0.22,0.22,0.2147,0.2208,0.2145,0.2212,0.2118,0.2146,0.1974,0.207,0.2006,0.1968,0.2032,0.2014,0.2307,0.2314,0.2272,0.2274,0.2276,0.2278,0,0.2381,0.2366,0.2302,0.2261,0.2248,0.2215,0.2171,0.2148,0.2141,0.2072,0.2061,0.2008,0.1861,0.1845,0.1821,0.1808,0.1748,0.1681,0.1653,0.1617,0.1643,0.165,0.1456,0.1447,0.1439,0.1432,0.1427,0,0.2336,0.2308,0.2274,0.2245,0.2222,0.2179,0.2149,0.2132,0.2083,0.1947,0.1887,0.173,0.1596,0.1391,0.1417,0.1344,0.144,0.125,0.1477,0.1582,0.1566,0.1585,0.1602,0.1465,0.146,0.1456,0.1453,0,0.2266,0.2277,0.2243,0.219,0.2149,0.2083,0.202,0.1965,0.1887,0.1794,0.1573,0.146,0.1301,0.1215,0.1084,0.1085,0.1278,0.1162,0.1308,0.1647,0.1566,0.1558,0.158,0.1419,0.1422,0.1425,0.1427,0.1428,0.2234,0.2204,0.2173,0.209,0.2049,0.1919,0.18,0.175,0.1607,0.1404,0.1342,0.1142,0.1149,0.0977,0.0913,0.0888,0.1024,0.1041,0.1065,0.1091,0.1117,0.1026,0.0773,0.0772,0.0772,0.0772,0.0772,0,0.212,0.2097,0.2051,0.1913,0.1787,0.1802,0.1644,0.1528,0.1315,0.1226,0.1059,0.0897,0.085,0.0813,0.0812,0.0799,0.0947,0.0701,0.0964,0.0998,0.1028,0.1063,0.0698,0.0696,0.0695,0.0694,0,0,0.2061,0.1951,0.189,0.1638,0.1555,0.136,0.123,0.1129,0.1052,0.0867,0.0753,0.0791,0.0808,0.0733,0.0768,0.0722,0.0844,0.0687,0.0768,0.1115,0.1143,0.1258,0.135,0,0,0,0,0]},{"header":{"parameterUnit":"m.s-1","parameterCategory":2,"la1":30.2991,"la2":30.254,"lo1":-89.0895,"lo2":-89.0444,"dy":0.0017,"dx":0.0017,"nx":28,"ny":28,"refTime":"2024-04-09T03:00:00:Z","depth":"2","parameterNumber":3,"parameterNumberName":"V-component_of_CURRENTS"},"data":[0,0,0,0,0,0,0,0,0,0,0,0,0,0,0,0,0,0,0,0,0,0,0,0,0,0,0,0,0,0,0,0,0,0,0,0,0,0,0,0,0,0,0,0,0,0,0,0,0,0,0,0,0,0,0,0,0,0,0.1439,0.1438,0,0.1294,0.1291,0.1288,0.1171,0.1171,0.1171,0.1171,0.0989,0.0984,0.0979,0,0,0,0,0,0,0,0,0,0,0,0,0,0.1347,0.135,0.1439,0.1438,0.1437,0.1294,0.1291,0.1288,0.1171,0.1171,0.1171,0.1171,0.099,0.0984,0.0979,0,0,0,0,0,0,0,0,0,0,0,0,0,0.1301,0.1351,0.1439,0.1371,0.1365,0.1295,0.1291,0.1287,0.1171,0.1171,0.1171,0.1171,0.0992,0.0985,0.0978,0.0934,0,0,0.0956,0.0953,0,0,0,0,0,0,0,0,0.1304,0.1303,0.1382,0.1376,0.1369,0.1262,0.1192,0.1171,0.1171,0.1231,0.1171,0.1171,0.1085,0.107,0.1025,0.0925,0.0917,0.0955,0.0951,0.0947,0.0945,0,0,0,0,0,0,0,0.1308,0.1308,0.1368,0.1382,0.1374,0.1257,0.1252,0.1185,0.115,0.1226,0.1221,0.1225,0.1079,0.1032,0.102,0.0915,0.0955,0.0949,0.0944,0.0941,0.0802,0.0802,0,0,0,0,0,0,0.1367,0.1313,0.1373,0.1365,0.135,0.1261,0.1254,0.1286,0.1151,0.1134,0.1225,0.122,0.1045,0.1029,0.1013,0.0973,0.0948,0.0941,0.0937,0.0801,0.0802,0.0802,0,0,0,0,0,0,0.1365,0.1374,0.1379,0.1343,0.1337,0.1266,0.13,0.1283,0.124,0.1153,0.1132,0.1202,0.1044,0.1024,0.0954,0.0965,0.0937,0.0931,0.08,0.0801,0.0802,0.088,0,0,0,0,0,0,0.1364,0.1375,0.1394,0.1349,0.1342,0.1328,0.1301,0.1281,0.1249,0.1241,0.1127,0.1109,0.1042,0.0965,0.0947,0.0954,0.0925,0.0799,0.0801,0.0802,0.0877,0.0883,0.0889,0,0,0,0,0,0.1361,0.1382,0.1396,0.1402,0.138,0.1329,0.1311,0.125,0.1249,0.1213,0.1153,0.1113,0.0961,0.0959,0.0938,0.0943,0.0799,0.08,0.0802,0.0874,0.0882,0.0889,0,0,0,0,0,0,0.1349,0.1373,0.1386,0.1416,0.1381,0.1314,0.1283,0.1261,0.1183,0.1181,0.1102,0.1079,0.1028,0.0976,0.0977,0.091,0.088,0.0878,0.0943,0.095,0.0956,0.1002,0.0919,0,0,0,0,0,0.1367,0.1388,0.1385,0.1403,0.1398,0.1349,0.132,0.1287,0.123,0.1195,0.1124,0.1062,0.1015,0.0977,0.0913,0.0865,0.0897,0.0861,0.0868,0.0874,0.0898,0.0962,0.0978,0.0807,0.0807,0.0807,0,0,0.1363,0.1385,0.1392,0.1401,0.1372,0.1346,0.1326,0.1291,0.1263,0.119,0.1118,0.1075,0.1008,0.0955,0.0929,0.0912,0.0942,0.0875,0.0881,0.0902,0.0965,0.0982,0.0998,0.0808,0.0808,0.0808,0,0,0.1354,0.1396,0.14,0.1383,0.1368,0.1338,0.1342,0.1286,0.1253,0.1195,0.1154,0.1133,0.1018,0.0994,0.0967,0.0976,0.0977,0.0947,0.1007,0.1068,0.1084,0.1098,0.1183,0.1204,0.0947,0.0947,0.0948,0,0.1338,0.1375,0.1382,0.1378,0.1367,0.1348,0.1331,0.1293,0.1215,0.1213,0.1181,0.1112,0.1049,0.1044,0.1039,0.0994,0.1034,0.0981,0.1081,0.1095,0.1108,0.1192,0.1214,0.0951,0.0951,0.0951,0.095,0,0.1327,0.1352,0.1351,0.1356,0.1335,0.1317,0.1298,0.1271,0.1253,0.1233,0.1225,0.1166,0.1141,0.1117,0.1069,0.1128,0.113,0.1088,0.107,0.1131,0.1214,0.1236,0.0957,0.0956,0.0954,0.0953,0,0,0.1289,0.1334,0.1332,0.1347,0.133,0.1314,0.1296,0.1284,0.1311,0.1259,0.13,0.1235,0.1251,0.1226,0.1191,0.1233,0.1354,0.1198,0.12,0.13,0.1519,0.1657,0.1693,0.1327,0.133,0.1333,0.1549,0,0.1268,0.1289,0.1304,0.1298,0.1304,0.1301,0.1294,0.1289,0.1293,0.1321,0.133,0.1342,0.1279,0.1294,0.1329,0.1336,0.1411,0.1302,0.143,0.1436,0.1564,0.1723,0.0991,0.1134,0.157,0.1574,0.1576,0,0.1244,0.1268,0.1282,0.1317,0.132,0.1311,0.1342,0.1335,0.1386,0.1402,0.1449,0.1455,0.1511,0.1458,0.1557,0.1487,0.1525,0.1542,0.155,0.1671,0.1615,0.1137,0.1157,0.1613,0.161,0.1607,0.1605,0,0.1226,0.1249,0.1274,0.1277,0.1306,0.1318,0.1328,0.1366,0.1407,0.1482,0.1541,0.1594,0.1639,0.1692,0.1714,0.1647,0.185,0.1758,0.1937,0.1946,0.135,0.1305,0.1885,0.1885,0.1884,0.1884,0.1883,0,0.1208,0.1221,0.1278,0.1287,0.1325,0.1336,0.1396,0.1416,0.1503,0.1582,0.1601,0.1681,0.1698,0.1793,0.1806,0.1974,0.1935,0.2019,0.2037,0.1364,0.132,0.1731,0.1711,0.1892,0.189,0.1888,0.1887,0,0.1187,0.1225,0.1258,0.1305,0.1326,0.1355,0.1442,0.1509,0.1564,0.168,0.1717,0.1785,0.1898,0.1955,0.2057,0.2118,0.2238,0.2302,0.1552,0.1487,0.227,0.225,0.2555,0.2562,0.2568,0.2574,0.2578,0,0.1182,0.1203,0.1275,0.1324,0.1351,0.141,0.1475,0.1539,0.1622,0.1738,0.1811,0.1938,0.1931,0.2176,0.199,0.2054,0.2425,0.1925,0.1712,0.2366,0.2351,0.2321,0.2294,0.0909,0.0899,0.0891,0.0885,0,0.1172,0.1208,0.1253,0.136,0.1436,0.1516,0.1605,0.1663,0.1751,0.1743,0.185,0.183,0.1775,0.1447,0.1583,0.1599,0.1852,0.1798,0.259,0.0948,0.0857,0.0831,0.0847,0.0814,0.0821,0.0826,0.083,0.0833,0.1179,0.1225,0.1318,0.1416,0.1505,0.1606,0.1639,0.1442,0.1418,0.1123,0.1485,0.114,0.1133,0.0749,0.0916,0.1111,0.1263,0.1435,0.1435,0.145,0.1317,0.1253,0.1257,0.1266,0.1274,0.1281,0.1287,0,0.1128,0.1286,0.1377,0.1501,0.1444,0.1638,0.1726,0.1401,0.0978,0.0658,0.0357,0.0178,-0.0169,0.0162,-0.0021,0.0252,-0.0013,0.0714,0.0178,0.0235,0.029,0.0085,-0.0294,-0.0293,-0.0291,-0.029,0,0,0.1139,0.1187,0.1243,0.1292,0.1458,0.1252,0.1265,0.0709,0.0277,-0.0381,-0.0659,-0.1032,-0.0468,-0.071,-0.056,-0.0435,-0.008,-0.0383,0.0756,0.0121,0.0177,0.048,0.0207,0,0,0,0,0]}],[{"header":{"parameterUnit":"m.s-1","parameterCategory":2,"la1":30.2991,"la2":30.254,"lo1":-89.0895,"lo2":-89.0444,"dy":0.0017,"dx":0.0017,"nx":28,"ny":28,"refTime":"2024-04-09T03:00:00:Z","depth":"4","parameterNumber":2,"parameterNumberName":"U-component_of_CURRENTS"},"data":[0,0,0,0,0,0,0,0,0,0,0,0,0,0,0,0,0,0,0,0,0,0,0,0,0,0,0,0,0,0,0,0,0,0,0,0,0,0,0,0,0,0,0,0,0,0,0,0,0,0,0,0,0,0,0,0,0,0,0.0995,0.0996,0,0.113,0.1131,0.1133,0.1237,0.1238,0.1239,0.124,0.1384,0.1387,0.139,0,0,0,0,0,0,0,0,0,0,0,0,0,0.0932,0.0932,0.0995,0.0997,0.0998,0.1129,0.1132,0.1134,0.1237,0.1238,0.1239,0.124,0.1383,0.1386,0.139,0,0,0,0,0,0,0,0,0,0,0,0,0,0.1004,0.0932,0.0995,0.1064,0.1072,0.1129,0.1132,0.1134,0.1237,0.1238,0.1239,0.124,0.1381,0.1386,0.139,0.1394,0,0,0.1405,0.1407,0,0,0,0,0,0,0,0,0.0999,0.1006,0.1052,0.1059,0.1068,0.1166,0.1162,0.1221,0.1236,0.1176,0.124,0.1241,0.131,0.132,0.1345,0.1401,0.1407,0.1405,0.1408,0.141,0.1411,0,0,0,0,0,0,0,0.0994,0.1001,0.105,0.1054,0.1063,0.1124,0.1135,0.1175,0.1236,0.1181,0.1189,0.12,0.1314,0.1341,0.135,0.141,0.1405,0.1409,0.1412,0.1414,0.1567,0.1569,0,0,0,0,0,0,0.0967,0.0996,0.1046,0.1054,0.1034,0.1124,0.1136,0.1135,0.1236,0.1251,0.1199,0.1205,0.1332,0.1344,0.1355,0.1434,0.141,0.1414,0.1417,0.1566,0.1568,0.1569,0,0,0,0,0,0,0.0965,0.0969,0.1041,0.1028,0.1041,0.1123,0.1121,0.1137,0.1188,0.1249,0.1266,0.1236,0.1334,0.1348,0.1412,0.1438,0.1416,0.142,0.1565,0.1567,0.1568,0.1548,0,0,0,0,0,0,0.0962,0.0967,0.0968,0.1025,0.104,0.1089,0.112,0.1139,0.1191,0.12,0.1285,0.1299,0.1336,0.1405,0.1417,0.1444,0.1424,0.1563,0.1565,0.1568,0.1547,0.1549,0.1551,0,0,0,0,0,0.0959,0.0952,0.0967,0.0974,0.1034,0.109,0.1105,0.1168,0.1191,0.1218,0.1274,0.1297,0.1429,0.1409,0.1423,0.1452,0.1562,0.1565,0.1568,0.1546,0.1548,0.1551,0,0,0,0,0,0,0.0926,0.0963,0.0981,0.0986,0.104,0.1107,0.1135,0.1174,0.1241,0.1252,0.1309,0.1327,0.1393,0.1425,0.1401,0.1505,0.1501,0.1507,0.148,0.1483,0.1485,0.1466,0.1428,0,0,0,0,0,0.0914,0.0918,0.0973,0.0978,0.1003,0.107,0.1103,0.1147,0.1206,0.1238,0.1296,0.1357,0.1412,0.1448,0.1498,0.155,0.1559,0.1581,0.1582,0.1584,0.1579,0.1621,0.1625,0.1579,0.1579,0.1579,0,0,0.09,0.0922,0.0925,0.0972,0.1017,0.1063,0.1095,0.1147,0.119,0.124,0.1316,0.1364,0.1426,0.1489,0.1522,0.1522,0.1598,0.1587,0.1588,0.1583,0.1624,0.1628,0.1632,0.1581,0.158,0.158,0,0,0.089,0.0897,0.0914,0.0956,0.1021,0.1062,0.1078,0.1156,0.1199,0.1267,0.1315,0.1374,0.1462,0.1511,0.1546,0.1587,0.1603,0.1612,0.1611,0.1652,0.1655,0.1658,0.165,0.1653,0.1617,0.1617,0.1617,0,0.0889,0.0902,0.093,0.0969,0.1004,0.1061,0.1104,0.115,0.1241,0.1271,0.1291,0.142,0.1472,0.1545,0.1565,0.159,0.16,0.1594,0.1652,0.1655,0.1659,0.165,0.1653,0.1616,0.1616,0.1616,0.1617,0,0.0903,0.0923,0.0937,0.0997,0.1037,0.1079,0.1141,0.1187,0.1235,0.1284,0.1364,0.1431,0.1506,0.1538,0.1566,0.1626,0.1617,0.1642,0.1637,0.1662,0.1651,0.1655,0.1615,0.1616,0.1616,0.1616,0,0,0.0907,0.094,0.0955,0.0978,0.1056,0.109,0.1145,0.1214,0.1252,0.1328,0.1382,0.1473,0.1502,0.1543,0.1589,0.1629,0.1656,0.1646,0.1649,0.1621,0.1712,0.1549,0.1538,0.1695,0.1696,0.1697,0.1684,0,0.0931,0.097,0.0994,0.105,0.1078,0.113,0.1176,0.1238,0.1292,0.1355,0.1415,0.1482,0.1506,0.1544,0.1587,0.1639,0.167,0.1655,0.1707,0.1707,0.1547,0.1538,0.1701,0.1687,0.1687,0.1688,0.1688,0,0.0964,0.0982,0.1021,0.1062,0.1084,0.1127,0.1198,0.1246,0.1325,0.1364,0.1424,0.1473,0.1532,0.1559,0.1633,0.1622,0.1666,0.1701,0.1702,0.1559,0.1552,0.1667,0.1695,0.1695,0.1694,0.1694,0.1693,0,0.0953,0.1009,0.1028,0.105,0.1108,0.1139,0.118,0.1255,0.1293,0.1367,0.1394,0.1469,0.1499,0.157,0.1607,0.1637,0.1671,0.1725,0.1617,0.1605,0.1766,0.1763,0.1791,0.1791,0.1791,0.1791,0.1791,0,0.0962,0.099,0.1024,0.104,0.1083,0.1128,0.1183,0.1229,0.1296,0.1329,0.1393,0.1413,0.1508,0.1531,0.1593,0.1565,0.1652,0.1595,0.159,0.1755,0.1751,0.1766,0.1764,0.1791,0.1791,0.1791,0.1791,0,0.0948,0.0966,0.1,0.1054,0.1075,0.1109,0.1177,0.1209,0.1264,0.1307,0.1324,0.137,0.1369,0.1426,0.1509,0.1507,0.1533,0.1517,0.1628,0.1633,0.1452,0.1449,0.1405,0.1399,0.1394,0.139,0.1386,0,0.0935,0.0947,0.1006,0.1026,0.1054,0.1104,0.1135,0.1195,0.1218,0.1265,0.1271,0.1276,0.1299,0.1241,0.1328,0.1366,0.139,0.1387,0.1475,0.1412,0.1413,0.1418,0.1422,0.1378,0.1377,0.1376,0.1375,0,0.0925,0.0952,0.0978,0.1007,0.1041,0.1073,0.1113,0.1115,0.1166,0.1224,0.1174,0.1165,0.1137,0.1152,0.1145,0.1208,0.1377,0.1336,0.135,0.1433,0.138,0.1387,0.1396,0.1357,0.136,0.1361,0.1362,0,0.0931,0.094,0.0964,0.0982,0.1023,0.102,0.1047,0.1042,0.1057,0.1099,0.1072,0.1077,0.1104,0.1067,0.1085,0.1078,0.1122,0.1149,0.1174,0.1194,0.1133,0.1035,0.0883,0,0,0,0,0,0.0927,0.0913,0.0931,0.0936,0.0971,0.0981,0.1023,0.1044,0.108,0.1016,0.1039,0.1007,0.0976,0.0982,0.0943,0.1038,0.1148,0.0994,0.1198,0.1262,0.1282,0.123,0,0,0,0,0,0,0.0918,0.0934,0.0911,0.0888,0.0878,0.0898,0.0916,0.0942,0.0903,0.0942,0.0916,0.096,0.0936,0.0973,0.0922,0.0931,0.1046,0.1011,0.1009,0.1251,0.1269,0.1285,0.1239,0,0,0,0,0]},{"header":{"parameterUnit":"m.s-1","parameterCategory":2,"la1":30.2991,"la2":30.254,"lo1":-89.0895,"lo2":-89.0444,"dy":0.0017,"dx":0.0017,"nx":28,"ny":28,"refTime":"2024-04-09T03:00:00:Z","depth":"4","parameterNumber":3,"parameterNumberName":"V-component_of_CURRENTS"},"data":[0,0,0,0,0,0,0,0,0,0,0,0,0,0,0,0,0,0,0,0,0,0,0,0,0,0,0,0,0,0,0,0,0,0,0,0,0,0,0,0,0,0,0,0,0,0,0,0,0,0,0,0,0,0,0,0,0,0,-0.0465,-0.0464,0,-0.0376,-0.0375,-0.0374,-0.0356,-0.0357,-0.0357,-0.0358,-0.0322,-0.0321,-0.032,0,0,0,0,0,0,0,0,0,0,0,0,0,-0.0573,-0.0572,-0.0465,-0.0464,-0.0462,-0.0376,-0.0375,-0.0374,-0.0356,-0.0357,-0.0357,-0.0358,-0.0323,-0.0321,-0.032,0,0,0,0,0,0,0,0,0,0,0,0,0,-0.0513,-0.0572,-0.0465,-0.0441,-0.0437,-0.0376,-0.0375,-0.0374,-0.0356,-0.0357,-0.0357,-0.0358,-0.0323,-0.0321,-0.0319,-0.0296,0,0,-0.0313,-0.0313,0,0,0,0,0,0,0,0,-0.0516,-0.0509,-0.0446,-0.0442,-0.0438,-0.0375,-0.04,-0.0349,-0.0356,-0.039,-0.0358,-0.0358,-0.0342,-0.0339,-0.0325,-0.0294,-0.0293,-0.0313,-0.0312,-0.0311,-0.0311,0,0,0,0,0,0,0,-0.0521,-0.0513,-0.0433,-0.0444,-0.0439,-0.0417,-0.041,-0.039,-0.0368,-0.0388,-0.0385,-0.037,-0.0341,-0.0327,-0.0324,-0.0292,-0.0313,-0.0312,-0.031,-0.031,-0.0218,-0.0217,0,0,0,0,0,0,-0.0526,-0.0517,-0.0436,-0.043,-0.0476,-0.0415,-0.0407,-0.0397,-0.0367,-0.0361,-0.0369,-0.0369,-0.033,-0.0326,-0.0323,-0.0267,-0.0311,-0.0309,-0.0308,-0.0219,-0.0218,-0.0216,0,0,0,0,0,0,-0.0529,-0.052,-0.0439,-0.0469,-0.0456,-0.0413,-0.0402,-0.0395,-0.0383,-0.0352,-0.0348,-0.0363,-0.033,-0.0325,-0.0295,-0.0267,-0.0309,-0.0307,-0.0221,-0.0219,-0.0217,-0.0173,0,0,0,0,0,0,-0.0533,-0.0522,-0.053,-0.0469,-0.0455,-0.0398,-0.04,-0.0393,-0.037,-0.037,-0.0345,-0.0342,-0.033,-0.0298,-0.0293,-0.0265,-0.0305,-0.0222,-0.022,-0.0218,-0.0176,-0.017,-0.0164,0,0,0,0,0,-0.0537,-0.0534,-0.0532,-0.0522,-0.0463,-0.0397,-0.0387,-0.0361,-0.037,-0.0355,-0.0338,-0.0343,-0.0279,-0.0295,-0.029,-0.026,-0.0224,-0.0221,-0.0218,-0.0178,-0.0171,-0.0164,0,0,0,0,0,0,-0.0582,-0.0529,-0.0526,-0.0508,-0.0457,-0.0392,-0.0378,-0.0362,-0.0336,-0.0341,-0.0326,-0.0321,-0.0283,-0.0279,-0.0297,-0.0227,-0.0252,-0.0248,-0.0224,-0.0217,-0.0211,-0.0218,-0.0304,0,0,0,0,0,-0.0597,-0.0587,-0.0522,-0.051,-0.0483,-0.0435,-0.0412,-0.0386,-0.0347,-0.0337,-0.0314,-0.0293,-0.0265,-0.0249,-0.0225,-0.0188,-0.0211,-0.0166,-0.016,-0.0156,-0.0157,-0.0168,-0.0164,-0.0207,-0.0207,-0.0207,0,0,-0.0609,-0.0582,-0.0576,-0.052,-0.0482,-0.0425,-0.0423,-0.0375,-0.0333,-0.0337,-0.0287,-0.0274,-0.0252,-0.0205,-0.0188,-0.0199,-0.0155,-0.0152,-0.0148,-0.0152,-0.0165,-0.0161,-0.0158,-0.0205,-0.0205,-0.0206,0,0,-0.0601,-0.0602,-0.0574,-0.0529,-0.0466,-0.0429,-0.0415,-0.0344,-0.0323,-0.0268,-0.0262,-0.0235,-0.0186,-0.0161,-0.0145,-0.0096,-0.0127,-0.0088,-0.0058,-0.0069,-0.0066,-0.0064,-0.0092,-0.0093,-0.0082,-0.0081,-0.0081,0,-0.0611,-0.0576,-0.0554,-0.0502,-0.0465,-0.0428,-0.0372,-0.0334,-0.0265,-0.0247,-0.0247,-0.0179,-0.0162,-0.0112,-0.0089,-0.0082,-0.0105,-0.0087,-0.0063,-0.0061,-0.006,-0.009,-0.0091,-0.0079,-0.0079,-0.008,-0.008,0,-0.0562,-0.0537,-0.0512,-0.0442,-0.0402,-0.0349,-0.0286,-0.025,-0.0226,-0.0191,-0.0142,-0.0114,-0.008,-0.0061,-0.0055,-0.0026,-0.0052,-0.0059,-0.0085,-0.0053,-0.0086,-0.0089,-0.0075,-0.0076,-0.0077,-0.0078,0,0,-0.0545,-0.0491,-0.0477,-0.045,-0.0368,-0.0324,-0.0261,-0.0193,-0.0168,-0.0109,-0.008,-0.0015,-0.002,-0.0003,0.0005,0.0007,0.0003,-0.0018,-0.002,-0.0054,-0.004,-0.0096,-0.0105,-0.0006,-0.0006,-0.0006,-0.007,0,-0.0501,-0.0435,-0.0405,-0.033,-0.0287,-0.0244,-0.0192,-0.0137,-0.0104,-0.0071,-0.0041,-0.0011,0.0008,0.0013,0.0025,0.0,-0.0,0.002,-0.0059,-0.0062,-0.0122,-0.0108,-0.0005,-0.0072,-0.0072,-0.0073,-0.0073,0,-0.044,-0.0411,-0.035,-0.0296,-0.027,-0.0221,-0.0161,-0.0107,-0.0059,-0.0042,-0.0009,0.0,0.0025,0.0023,0.0014,0.0021,-0.0002,-0.0019,-0.0023,-0.0094,-0.0122,-0.0108,-0.0077,-0.0077,-0.0077,-0.0076,-0.0076,0,-0.0444,-0.0364,-0.0335,-0.0307,-0.0235,-0.0204,-0.0161,-0.0103,-0.0081,-0.0039,-0.0051,0.0,-0.0022,-0.0009,-0.0031,-0.0016,-0.0071,-0.0057,-0.0126,-0.0131,-0.0082,-0.0084,-0.0069,-0.0069,-0.0069,-0.0069,-0.0069,0,-0.0406,-0.037,-0.034,-0.0315,-0.0269,-0.0215,-0.0174,-0.0125,-0.0097,-0.0109,-0.0052,-0.0091,-0.0038,-0.0062,-0.0049,-0.0107,-0.0086,-0.0127,-0.015,-0.0062,-0.0061,-0.0085,-0.0086,-0.0071,-0.0071,-0.007,-0.007,0,-0.0397,-0.0382,-0.034,-0.0287,-0.0272,-0.0236,-0.019,-0.018,-0.0149,-0.0176,-0.0175,-0.0177,-0.0223,-0.0177,-0.0192,-0.0173,-0.0188,-0.0213,-0.0141,-0.0158,-0.0235,-0.0232,-0.029,-0.0292,-0.0294,-0.0296,-0.0298,0,-0.0385,-0.037,-0.0334,-0.0337,-0.0312,-0.0271,-0.0262,-0.0205,-0.0221,-0.026,-0.0302,-0.0342,-0.0348,-0.0402,-0.0347,-0.0312,-0.0305,-0.0294,-0.0231,-0.024,-0.0256,-0.0251,-0.0246,-0.0301,-0.0302,-0.0302,-0.0303,0,-0.0359,-0.0361,-0.0344,-0.0369,-0.0364,-0.0355,-0.0349,-0.0363,-0.035,-0.0328,-0.0428,-0.0436,-0.0507,-0.0478,-0.045,-0.0423,-0.0276,-0.0315,-0.0309,-0.0251,-0.0255,-0.0267,-0.026,-0.031,-0.0309,-0.0308,-0.0308,0,-0.0351,-0.0361,-0.0389,-0.0404,-0.0423,-0.0474,-0.0433,-0.0476,-0.0473,-0.0494,-0.055,-0.0576,-0.0568,-0.0546,-0.053,-0.0491,-0.0472,-0.0422,-0.0411,-0.0402,-0.0399,-0.0418,-0.055,0,0,0,0,0,-0.0352,-0.0414,-0.0437,-0.0488,-0.0517,-0.0539,-0.0532,-0.0502,-0.0494,-0.0571,-0.0547,-0.0605,-0.0607,-0.0612,-0.0589,-0.057,-0.0464,-0.0541,-0.0399,-0.035,-0.0342,-0.0322,0,0,0,0,0,0,-0.0375,-0.0419,-0.0462,-0.0577,-0.0633,-0.0679,-0.0677,-0.0655,-0.0677,-0.0655,-0.0654,-0.0614,-0.0608,-0.0643,-0.0607,-0.0596,-0.0501,-0.0523,-0.0522,-0.0355,-0.0348,-0.0341,-0.0317,0,0,0,0,0]}]]